This demonstration page uses our WeatherBlox Daily Observations layout. Learn more.

Left ArrowRight Arrow

Hourly Observations for September 11, 2017

Temp ( °F °C ) Dew Point ( °F °C ) Humidity (%) Winds ( mph kmh ) Pressure ( in mb ) Visibility ( mi km ) Precip ( " mm )
12:15 am 00:15 Clear 59 15 54 12 82 82 NNE 6 9 30.36 1028 10 16 0.00 0.00
12:35 am 00:35 Clear 59 15 54 12 82 82 NNE 6 9 30.36 1028 10 16 0.00 0.00
12:55 am 00:55 Clear 59 15 54 12 82 82 NNE 6 9 30.36 1028 10 16 0.00 0.00
1:15 am 01:15 Clear 55 13 54 12 94 94 N 3 6 30.36 1028 10 16 0.00 0.00
1:35 am 01:35 Clear 54 12 52 11 94 94 N 3 6 30.39 1029 10 16 0.00 0.00
1:55 am 01:55 Clear 55 13 54 12 94 94 NNE 5 7 30.36 1028 10 16 0.00 0.00
2:15 am 02:15 Clear 55 13 52 11 88 88 N 5 7 30.36 1028 10 16 0.00 0.00
2:35 am 02:35 Clear 55 13 52 11 88 88 NNE 6 9 30.36 1028 10 16 0.00 0.00
2:55 am 02:55 Clear 55 13 52 11 88 88 NNE 6 9 30.36 1028 10 16 0.00 0.00
3:15 am 03:15 Clear 55 13 52 11 88 88 N 5 7 30.36 1028 10 16 0.00 0.00
3:35 am 03:35 Clear 55 13 52 11 88 88 NNE 5 7 30.36 1028 10 16 0.00 0.00
3:55 am 03:55 Clear 55 13 52 11 88 88 N 7 11 30.36 1028 10 16 0.00 0.00
4:15 am 04:15 Clear 55 13 52 11 88 88 NNE 6 9 30.36 1028 10 16 0.00 0.00
4:35 am 04:35 Clear 55 13 52 11 88 88 NNE 6 9 30.36 1028 10 16 0.00 0.00
4:55 am 04:55 Clear 54 12 52 11 94 94 N 6 9 30.39 1029 10 16 0.00 0.00
5:15 am 05:15 Clear 54 12 52 11 94 94 N 5 7 30.39 1029 10 16 0.00 0.00
5:35 am 05:35 Clear 54 12 52 11 94 94 N 6 9 30.39 1029 10 16 0.00 0.00
5:55 am 05:55 Clear 54 12 52 11 94 94 NNE 5 7 30.39 1029 10 16 0.00 0.00
6:15 am 06:15 Clear 54 12 52 11 94 94 NNE 6 9 30.39 1029 10 16 0.00 0.00
6:35 am 06:35 Clear 54 12 52 11 94 94 NNE 5 7 30.39 1029 10 16 0.00 0.00
6:55 am 06:55 Sunny 54 12 50 10 88 88 NNE 6 9 30.39 1029 10 16 0.00 0.00
7:15 am 07:15 Sunny 54 12 50 10 88 88 NNE 5 7 30.39 1029 10 16 0.00 0.00
7:35 am 07:35 Sunny 54 12 52 11 94 94 NNE 5 7 30.39 1029 10 16 0.00 0.00
7:55 am 07:55 Sunny 55 13 52 11 88 88 N 5 7 30.36 1028 10 16 0.00 0.00
8:15 am 08:15 Sunny 55 13 52 11 88 88 N 6 9 30.36 1028 10 16 0.00 0.00
8:35 am 08:35 Sunny 57 14 52 11 82 82 NNE 5 7 30.36 1028 10 16 0.00 0.00
8:55 am 08:55 Sunny 59 15 52 11 77 77 NE 6 9 30.36 1028 10 16 0.00 0.00
9:15 am 09:15 Sunny 61 16 52 11 72 72 NNE 6 9 30.33 1027 10 16 0.00 0.00
9:35 am 09:35 Sunny 61 16 54 12 77 77 NE 5 7 30.36 1028 10 16 0.00 0.00
9:55 am 09:55 Sunny 63 17 54 12 73 73 NNE 6 9 30.33 1027 10 16 0.00 0.00
10:15 am 10:15 Sunny 64 18 54 12 68 68 NNE 6 9 30.33 1027 10 16 0.00 0.00
10:35 am 10:35 Sunny 64 18 55 13 73 73 Calm 30.33 1027 10 16 0.00 0.00
10:55 am 10:55 Sunny 66 19 55 13 68 68 Calm 30.33 1027 10 16 0.00 0.00
11:15 am 11:15 Sunny 68 20 55 13 64 64 NE 3 6 30.33 1027 10 16 0.00 0.00
11:35 am 11:35 Sunny 68 20 55 13 64 64 NE 3 6 30.33 1027 10 16 0.00 0.00
11:55 am 11:55 Sunny 70 21 54 12 57 57 Calm 30.33 1027 10 16 0.00 0.00
12:15 pm 12:15 Sunny 70 21 54 12 57 57 Calm 30.30 1026 10 16 0.00 0.00
12:35 pm 12:35 Sunny 72 22 55 13 57 57 NE 6 9 30.30 1026 10 16 0.00 0.00
12:55 pm 12:55 Partly Cloudy 72 22 54 12 53 53 NE 3 6 30.30 1026 10 16 0.00 0.00
1:15 pm 13:15 Partly Cloudy 72 22 54 12 53 53 ESE 6 9 30.30 1026 10 16 0.00 0.00
1:35 pm 13:35 Sunny 72 22 52 11 50 50 Calm 30.30 1026 10 16 0.00 0.00
1:55 pm 13:55 Sunny 72 22 52 11 50 50 E 3 6 30.30 1026 10 16 0.00 0.00
2:15 pm 14:15 Sunny 73 23 54 12 50 50 NNE 5 7 30.27 1025 10 16 0.00 0.00
2:35 pm 14:35 Sunny 72 22 52 11 50 50 ENE 3 6 30.27 1025 10 16 0.00 0.00
2:55 pm 14:55 Sunny 72 22 52 11 50 50 ENE 7 11 30.27 1025 10 16 0.00 0.00
3:15 pm 15:15 Sunny 72 22 52 11 50 50 ENE 6 9 30.24 1024 10 16 0.00 0.00
3:35 pm 15:35 Sunny 72 22 52 11 50 50 ENE 3 6 30.24 1024 10 16 0.00 0.00
3:55 pm 15:55 Sunny 72 22 52 11 50 50 ENE 6 9 30.24 1024 10 16 0.00 0.00
4:15 pm 16:15 Sunny 72 22 54 12 53 53 ENE 3 6 30.21 1023 10 16 0.00 0.00
4:35 pm 16:35 Sunny 72 22 54 12 53 53 Calm 30.21 1023 10 16 0.00 0.00
4:55 pm 16:55 Sunny 72 22 52 11 50 50 ESE 5 7 30.21 1023 10 16 0.00 0.00
5:15 pm 17:15 Sunny 72 22 54 12 53 53 ENE 5 7 30.21 1023 10 16 0.00 0.00
5:35 pm 17:35 Sunny 72 22 54 12 53 53 Calm 30.21 1023 10 16 0.00 0.00
5:55 pm 17:55 Sunny 72 22 55 13 57 57 ENE 3 6 30.21 1023 10 16 0.00 0.00
6:15 pm 18:15 Sunny 70 21 54 12 57 57 ENE 3 6 30.21 1023 10 16 0.00 0.00
6:35 pm 18:35 Sunny 70 21 54 12 57 57 Calm 30.21 1023 10 16 0.00 0.00
6:55 pm 18:55 Sunny 70 21 54 12 57 57 Calm 30.18 1022 10 16 0.00 0.00
7:15 pm 19:15 Sunny 70 21 54 12 57 57 Calm 30.21 1023 10 16 0.00 0.00
7:35 pm 19:35 Clear 68 20 55 13 64 64 Calm 30.21 1023 10 16 0.00 0.00
7:55 pm 19:55 Clear 64 18 59 15 83 83 Calm 30.18 1022 10 16 0.00 0.00
8:15 pm 20:15 Clear 64 18 59 15 83 83 Calm 30.18 1022 10 16 0.00 0.00
8:35 pm 20:35 Clear 64 18 61 16 88 88 Calm 30.21 1023 10 16 0.00 0.00
8:55 pm 20:55 Clear 64 18 59 15 83 83 Calm 30.21 1023 10 16 0.00 0.00
9:15 pm 21:15 Clear 63 17 61 16 94 94 Calm 30.18 1022 10 16 0.00 0.00
9:35 pm 21:35 Clear 63 17 59 15 88 88 Calm 30.18 1022 10 16 0.00 0.00
9:55 pm 21:55 Clear 63 17 59 15 88 88 Calm 30.18 1022 10 16 0.00 0.00
10:15 pm 22:15 Clear 61 16 59 15 94 94 Calm 30.18 1022 10 16 0.00 0.00
10:35 pm 22:35 Clear 61 16 59 15 94 94 N 3 6 30.18 1022 10 16 0.00 0.00
10:55 pm 22:55 Clear 63 17 59 15 88 88 Calm 30.18 1022 10 16 0.00 0.00
11:15 pm 23:15 Clear 61 16 59 15 94 94 Calm 30.18 1022 10 16 0.00 0.00
11:35 pm 23:35 Clear 61 16 57 14 88 88 Calm 30.15 1021 10 16 0.00 0.00
11:55 pm 23:55 Clear 63 17 55 13 77 77 Calm 30.15 1021 10 16 0.00 0.00

Powered by AerisWeather